sat.trackr.live / text

‹ back to catalog

STARLINK-5844

NORAD 57068 · 2023-088W

PAYLOAD ACTIVE UNKNOWN

§ Identity

Operator
Country
US
Launch date
2023-06-22
Launch site
AFWTR
Launch vehicle
Mass (kg)
RCS (m²)

Purposes: comms

External: N2YO · Heavens-Above · Gunter

§ Orbital elements

Epoch: 2026-05-25T01:58:11.121024Z

Period
94.27 min
Inclination
43.0048°
Eccentricity
0.0001008
Mean motion
15.27591965 rev/d
Perigee alt
482.3 km
Apogee alt
483.7 km
Semi-major
6,861.2 km
B*
-1.1384e-4
RAAN
42.8101°
Arg perigee
262.0966°
Mean anomaly
97.9771°
Rev number
16,197

§ Raw data

STARLINK-58441 57068U 23088W   26145.08207316 -.00003394  00000+0 -11384-3 0  99922 57068  43.0048  42.8101 0001008 262.0966  97.9771 15.27591965161977

JSON: /api/v1/satellites/57068 · /tle

For live sub-satellite position, see the globe view (requires WebGL).

§ Visibility from observer

Set your observer location to see the next 7 days of passes ≥ 10°. The values pass through the URL so the page stays shareable.

No JS? Fill the form by hand. The geolocation button needs JavaScript.